[[{"header":{"parameterUnit":"m.s-1","parameterCategory":1,"la1":30.2991,"la2":30.254,"lo1":-89.0895,"lo2":-89.0444,"dy":0.0017,"dx":0.0017,"nx":28,"ny":28,"refTime":"2023-07-25T03:00:00:Z","depth":0,"parameterNumber":2,"parameterNumberName":"U-component_of_WINDS"},"data":[0,0,0,0,0,0,0,0,0,0,0,0,0,0,0,0,0,0,0,0,0,0,0,0,0,0,0,0,0,0,0,0,0,0,0,0,0,0,0,0,0,0,0,0,0,0,0,0,0,0,0,0,0,0,0,0,0,0,-0.9682,-0.9681,0,-0.9576,-0.9574,-0.9573,-0.949,-0.9489,-0.9488,-0.9488,-0.9377,-0.9375,-0.9373,0,0,0,0,0,0,0,0,0,0,0,0,0,-0.9812,-0.981,-0.9682,-0.9681,-0.9679,-0.9576,-0.9574,-0.9573,-0.949,-0.9489,-0.9488,-0.9487,-0.9378,-0.9375,-0.9372,0,0,0,0,0,0,0,0,0,0,0,0,0,-0.9736,-0.9809,-0.9682,-0.9626,-0.9619,-0.9576,-0.9574,-0.9572,-0.949,-0.9489,-0.9488,-0.9487,-0.9379,-0.9375,-0.9372,-0.9376,0,0,-0.9362,-0.9361,0,0,0,0,0,0,0,0,-0.974,-0.9731,-0.9635,-0.9629,-0.9623,-0.9545,-0.9579,-0.9506,-0.9491,-0.9539,-0.9488,-0.9486,-0.9434,-0.9426,-0.9408,-0.9371,-0.9366,-0.9362,-0.936,-0.9358,-0.9357,0,0,0,0,0,0,0,-0.9745,-0.9735,-0.964,-0.9634,-0.9626,-0.9605,-0.9593,-0.9565,-0.9494,-0.9535,-0.9529,-0.9517,-0.943,-0.9412,-0.9405,-0.9364,-0.9362,-0.9359,-0.9357,-0.9355,-0.9324,-0.9325,0,0,0,0,0,0,-0.976,-0.974,-0.9643,-0.9637,-0.968,-0.9604,-0.959,-0.9571,-0.9495,-0.9482,-0.9519,-0.9514,-0.9418,-0.9409,-0.9401,-0.94,-0.9358,-0.9355,-0.9353,-0.9323,-0.9324,-0.9326,0,0,0,0,0,0,-0.9763,-0.9752,-0.9647,-0.9686,-0.9672,-0.9603,-0.9582,-0.957,-0.9551,-0.9482,-0.9469,-0.9513,-0.9417,-0.9406,-0.9383,-0.9395,-0.9354,-0.9351,-0.9322,-0.9323,-0.9325,-0.9399,0,0,0,0,0,0,-0.9767,-0.9753,-0.9754,-0.9687,-0.967,-0.9632,-0.9583,-0.9568,-0.9546,-0.9539,-0.9474,-0.9461,-0.9415,-0.9388,-0.938,-0.939,-0.9348,-0.932,-0.9322,-0.9324,-0.9395,-0.9403,-0.941,0,0,0,0,0,-0.9772,-0.9779,-0.9755,-0.9744,-0.967,-0.9633,-0.9623,-0.9569,-0.9547,-0.9548,-0.9503,-0.9464,-0.9396,-0.9387,-0.9376,-0.9386,-0.9319,-0.9322,-0.9324,-0.9392,-0.9402,-0.941,0,0,0,0,0,0,-0.9848,-0.9769,-0.9741,-0.9727,-0.9688,-0.9619,-0.9617,-0.9581,-0.9546,-0.9541,-0.9476,-0.9462,-0.9446,-0.9413,-0.9405,-0.9385,-0.9352,-0.9353,-0.9407,-0.9416,-0.9423,-0.9431,-0.9345,0,0,0,0,0,-0.9864,-0.9841,-0.9773,-0.9767,-0.9748,-0.9687,-0.9668,-0.9631,-0.9587,-0.9569,-0.9523,-0.9481,-0.945,-0.9431,-0.9399,-0.939,-0.9375,-0.9392,-0.9399,-0.9406,-0.9407,-0.94,-0.9407,-0.9334,-0.9334,-0.9334,0,0,-0.9895,-0.9849,-0.9838,-0.9781,-0.9746,-0.9723,-0.9673,-0.9651,-0.9633,-0.9565,-0.9541,-0.9506,-0.9455,-0.944,-0.9431,-0.9412,-0.9424,-0.9409,-0.9415,-0.9412,-0.9403,-0.941,-0.9416,-0.9336,-0.9336,-0.9335,0,0,-0.994,-0.9904,-0.9894,-0.9861,-0.9808,-0.9767,-0.9765,-0.9702,-0.9677,-0.9652,-0.9601,-0.9579,-0.9527,-0.9492,-0.9468,-0.9502,-0.9464,-0.9494,-0.9532,-0.9526,-0.9532,-0.9536,-0.9548,-0.9553,-0.9495,-0.9495,-0.9495,0,-0.9986,-0.995,-0.9894,-0.9875,-0.9852,-0.9791,-0.9781,-0.9751,-0.969,-0.9675,-0.9656,-0.959,-0.9551,-0.9527,-0.9535,-0.9518,-0.9513,-0.95,-0.9535,-0.954,-0.9543,-0.9554,-0.9559,-0.9499,-0.9499,-0.9498,-0.9498,0,-1.0008,-0.9984,-0.9983,-0.9928,-0.9904,-0.989,-0.9832,-0.9814,-0.9779,-0.974,-0.9716,-0.9668,-0.9625,-0.9616,-0.9581,-0.9587,-0.9577,-0.9548,-0.9513,-0.9555,-0.9564,-0.9567,-0.9505,-0.9503,-0.9502,-0.9501,0,0,-1.0098,-1.0012,-1.0013,-0.9987,-0.9925,-0.9905,-0.9889,-0.9848,-0.9834,-0.9795,-0.9779,-0.9737,-0.9709,-0.9682,-0.9643,-0.9638,-0.9668,-0.9608,-0.9606,-0.9621,-0.9671,-0.9694,-0.97,-0.9643,-0.9644,-0.9644,-0.9676,0,-1.0133,-1.01,-1.005,-1.0033,-1.0011,-0.9953,-0.9938,-0.9899,-0.9863,-0.9837,-0.9797,-0.9768,-0.9734,-0.9717,-0.971,-0.9666,-0.9677,-0.9663,-0.9627,-0.9627,-0.9641,-0.9704,-0.9728,-0.976,-0.9679,-0.9679,-0.968,0,-1.0169,-1.0134,-1.0116,-1.0057,-1.0045,-1.0033,-0.9992,-0.9969,-0.9923,-0.9897,-0.9867,-0.9825,-0.9804,-0.9774,-0.9744,-0.9736,-0.9718,-0.9694,-0.9694,-0.9688,-0.9655,-0.97,-0.9769,-0.9774,-0.9685,-0.9684,-0.9684,0,-1.0236,-1.0185,-1.0167,-1.0147,-1.0077,-1.007,-1.004,-0.9993,-0.9972,-0.9936,-0.9921,-0.9883,-0.9862,-0.9833,-0.9782,-0.9765,-0.9758,-0.9723,-0.9735,-0.9737,-0.9736,-0.9737,-0.9803,-0.9726,-0.9726,-0.9726,-0.9726,0,-1.0281,-1.0272,-1.0196,-1.0185,-1.0174,-1.0116,-1.0106,-1.0071,-1.003,-1.0011,-0.9959,-0.9942,-0.9876,-0.9851,-0.9811,-0.9793,-0.9783,-0.9761,-0.9751,-0.9766,-0.9769,-0.9753,-0.9749,-0.9727,-0.9727,-0.9726,-0.9726,0,-1.0353,-1.0302,-1.0279,-1.0216,-1.02,-1.0194,-1.0139,-1.0126,-1.0087,-1.0064,-1.0055,-0.9994,-0.9963,-0.9909,-0.9862,-0.9835,-0.9824,-0.9806,-0.984,-0.9833,-0.9849,-0.9848,-0.9907,-0.9911,-0.9832,-0.9833,-0.9834,0,-1.0385,-1.0376,-1.0312,-1.0297,-1.0269,-1.0244,-1.0222,-1.0166,-1.0145,-1.0093,-1.0087,-1.0051,-1.002,-0.9972,-0.9923,-0.9887,-0.9868,-0.9891,-0.9862,-0.9877,-0.9868,-0.9869,-0.9868,-0.9897,-0.9899,-0.99,-0.99,0,-1.0446,-1.0421,-1.0392,-1.0355,-1.0331,-1.0299,-1.0264,-1.0253,-1.0189,-1.0169,-1.0136,-1.0112,-1.0065,-1.003,-0.9987,-0.9956,-0.9918,-0.991,-0.9911,-0.9926,-0.9946,-0.9935,-0.9858,-0.9909,-0.9908,-0.9907,-0.9907,-0.9906,-1.0498,-1.0488,-1.0442,-1.0412,-1.038,-1.0349,-1.0334,-1.0293,-1.0266,-1.0223,-1.0191,-1.0161,-1.0116,-1.0054,-1.0026,-1.0001,-0.9984,-0.9985,-0.9985,-0.9986,-0.9992,-0.9951,-0.9993,-0.9993,-0.9993,-0.9993,-0.9992,0,-1.0556,-1.0524,-1.0497,-1.045,-1.0426,-1.0393,-1.0353,-1.0335,-1.031,-1.0271,-1.0242,-1.0205,-1.0172,-1.0121,-1.0083,-1.0073,-1.0055,-1.0065,-1.0065,-1.0059,-1.001,-1.0013,-1.0081,-1.0081,-1.0081,-1.0081,-1.0081,-1.0081,-1.0583,-1.0565,-1.0536,-1.0501,-1.0469,-1.044,-1.0419,-1.039,-1.0359,-1.0321,-1.0293,-1.0261,-1.0217,-1.0176,-1.0144,-1.013,-1.0118,-1.0135,-1.0115,-1.007,-1.0062,-1.0054,-1.0057,-1.0133,-1.0133,-1.0165,-1.0166,-1.0166]},{"header":{"parameterUnit":"m.s-1","parameterCategory":1,"la1":30.2991,"la2":30.254,"lo1":-89.0895,"lo2":-89.0444,"dy":0.0017,"dx":0.0017,"nx":28,"ny":28,"refTime":"2023-07-25T03:00:00:Z","depth":0,"parameterNumber":3,"parameterNumberName":"V-component_of_WINDS"},"data":[0,0,0,0,0,0,0,0,0,0,0,0,0,0,0,0,0,0,0,0,0,0,0,0,0,0,0,0,0,0,0,0,0,0,0,0,0,0,0,0,0,0,0,0,0,0,0,0,0,0,0,0,0,0,0,0,0,0,1.8018,1.8018,0,1.8017,1.8017,1.8017,1.8061,1.8062,1.8063,1.8064,1.8059,1.8057,1.8056,0,0,0,0,0,0,0,0,0,0,0,0,0,1.8056,1.8055,1.8018,1.8018,1.8018,1.8017,1.8017,1.8017,1.806,1.8062,1.8063,1.8065,1.8059,1.8058,1.8056,0,0,0,0,0,0,0,0,0,0,0,0,0,1.8045,1.8055,1.8018,1.804,1.8042,1.8017,1.8017,1.8017,1.806,1.8062,1.8064,1.8065,1.8059,1.8058,1.8056,1.8009,0,0,1.805,1.8049,0,0,0,0,0,0,0,0,1.8046,1.8044,1.8037,1.8038,1.8041,1.8041,1.8028,1.8014,1.806,1.8053,1.8064,1.8066,1.8051,1.805,1.8046,1.8008,1.8008,1.805,1.8049,1.8048,1.8047,0,0,0,0,0,0,0,1.8047,1.8044,1.8018,1.8037,1.8039,1.8049,1.8049,1.8026,1.8042,1.8054,1.8057,1.8056,1.8052,1.8047,1.8046,1.8008,1.805,1.8048,1.8047,1.8046,1.7931,1.7929,0,0,0,0,0,0,1.8045,1.8045,1.8018,1.8018,1.8048,1.8047,1.8047,1.8039,1.8042,1.8045,1.8055,1.8058,1.805,1.8048,1.8046,1.7989,1.8048,1.8046,1.8045,1.7932,1.793,1.7928,0,0,0,0,0,0,1.8045,1.8042,1.8018,1.8032,1.803,1.8044,1.8034,1.8038,1.8033,1.8043,1.8046,1.8047,1.8051,1.8048,1.8017,1.799,1.8045,1.8044,1.7935,1.7932,1.7929,1.7876,0,0,0,0,0,0,1.8046,1.8042,1.8025,1.8031,1.8029,1.799,1.8033,1.8037,1.803,1.8035,1.8036,1.8038,1.8052,1.802,1.8016,1.7988,1.8042,1.7937,1.7933,1.793,1.7881,1.7872,1.7865,0,0,0,0,0,1.8048,1.801,1.8024,1.802,1.8008,1.7989,1.7987,1.8005,1.8028,1.801,1.8017,1.8038,1.7994,1.8016,1.8012,1.7983,1.7939,1.7935,1.793,1.7884,1.7874,1.7865,0,0,0,0,0,0,1.7999,1.8011,1.8027,1.799,1.7988,1.7996,1.7974,1.7993,1.7984,1.7988,1.801,1.801,1.7975,1.7976,1.8001,1.7937,1.797,1.7965,1.7937,1.7927,1.7919,1.7918,1.8041,0,0,0,0,0,1.7984,1.7968,1.798,1.7946,1.7945,1.796,1.7952,1.7966,1.7964,1.7963,1.7967,1.7964,1.7949,1.7939,1.7926,1.7882,1.7882,1.786,1.7852,1.7846,1.784,1.7815,1.7805,1.7914,1.7914,1.7914,0,0,1.7953,1.7958,1.7946,1.7937,1.7937,1.7918,1.7958,1.7938,1.7924,1.796,1.793,1.7933,1.7931,1.7893,1.7876,1.7893,1.781,1.784,1.7835,1.7832,1.7809,1.7799,1.779,1.7911,1.7911,1.7912,0,0,1.7886,1.7889,1.7861,1.786,1.786,1.7871,1.7864,1.7869,1.7873,1.7844,1.787,1.7854,1.7828,1.7825,1.7819,1.7752,1.777,1.7747,1.7704,1.768,1.7671,1.7664,1.7637,1.7628,1.7742,1.7742,1.7741,0,1.7846,1.7821,1.7843,1.7821,1.7815,1.7848,1.7818,1.7817,1.7812,1.7806,1.7826,1.7794,1.7795,1.7755,1.7739,1.7735,1.7726,1.7746,1.7671,1.7664,1.7657,1.7632,1.7622,1.7739,1.7739,1.7739,1.7739,0,1.7772,1.7754,1.7731,1.7727,1.7719,1.7693,1.7709,1.7699,1.7713,1.7721,1.7691,1.7693,1.768,1.7673,1.7687,1.7635,1.7645,1.7668,1.7701,1.7643,1.762,1.761,1.7734,1.7735,1.7736,1.7737,0,0,1.7673,1.7681,1.7672,1.767,1.7672,1.7658,1.7634,1.7622,1.7612,1.7608,1.7586,1.7564,1.7584,1.7578,1.7593,1.7571,1.7515,1.7596,1.7596,1.7579,1.7456,1.7437,1.7426,1.7529,1.7527,1.7526,1.7455,0,1.7606,1.7565,1.7584,1.754,1.7523,1.7554,1.7532,1.753,1.7537,1.7523,1.753,1.7513,1.7543,1.7539,1.752,1.7526,1.749,1.7532,1.7506,1.7505,1.7503,1.7414,1.7394,1.7327,1.7446,1.7445,1.7444,0,1.7523,1.7515,1.747,1.7475,1.7468,1.7448,1.7439,1.7426,1.7424,1.743,1.7424,1.7443,1.7417,1.7452,1.7416,1.7444,1.7435,1.7437,1.7435,1.7431,1.7469,1.7405,1.7307,1.7295,1.743,1.7431,1.7432,0,1.7451,1.7431,1.7401,1.7398,1.7404,1.7389,1.739,1.7391,1.7382,1.7374,1.7369,1.7357,1.735,1.734,1.7355,1.738,1.7316,1.7353,1.7319,1.7318,1.7301,1.7302,1.7197,1.73,1.73,1.73,1.7301,0,1.7374,1.7344,1.7369,1.735,1.7317,1.7339,1.7306,1.731,1.731,1.7292,1.7319,1.73,1.7322,1.7305,1.7317,1.7284,1.7281,1.7284,1.7287,1.728,1.7279,1.7273,1.7277,1.7298,1.7298,1.7299,1.7299,0,1.7288,1.7304,1.7272,1.728,1.7282,1.7257,1.7263,1.7245,1.7255,1.7231,1.7226,1.724,1.7222,1.7236,1.7218,1.7226,1.7182,1.7193,1.7182,1.7184,1.7148,1.715,1.7034,1.7019,1.7133,1.7132,1.7131,0,1.7236,1.7214,1.722,1.721,1.721,1.7193,1.7185,1.7206,1.7196,1.7193,1.7175,1.7159,1.7147,1.7117,1.7124,1.711,1.7119,1.7079,1.7117,1.711,1.7115,1.7116,1.7112,1.7071,1.7069,1.7068,1.7067,0,1.7141,1.715,1.7138,1.7128,1.7117,1.7111,1.7106,1.7096,1.7117,1.7105,1.7087,1.7078,1.706,1.7043,1.7032,1.7032,1.7052,1.7056,1.7047,1.7038,1.7032,1.7032,1.7159,1.7058,1.7059,1.7059,1.706,1.706,1.7069,1.705,1.7051,1.7036,1.7035,1.703,1.7013,1.702,1.7006,1.6994,1.7007,1.6985,1.6983,1.697,1.6968,1.695,1.6966,1.6954,1.695,1.6946,1.6939,1.7037,1.6948,1.6949,1.6949,1.6949,1.6949,0,1.6973,1.6975,1.6962,1.6954,1.6942,1.6965,1.696,1.6948,1.6929,1.6926,1.6914,1.6893,1.6877,1.6884,1.6869,1.6854,1.6862,1.6849,1.6849,1.6848,1.6927,1.6935,1.6842,1.6842,1.6842,1.6842,1.6842,1.6842,1.6921,1.689,1.6899,1.6867,1.687,1.6849,1.6844,1.6839,1.6837,1.6812,1.68,1.6805,1.6805,1.6791,1.6777,1.6779,1.6771,1.6754,1.6759,1.6832,1.6843,1.6853,1.686,1.6753,1.6753,1.6681,1.6681,1.668]}]]